• In Germany
  • List of Countries
  • For 7 days
  • Water Temperature
  • Satellite Maps
  • Weather Map
  • Weather Widgets
  • user-avatar
    Login

    Hourly Weather Berat

    Today, 29 May, Monday

    Time Temperature Precipitation Wind Pressure Humidity
    00:00 +15°C° 0 mm 2 mps 747 mmHg 81%
    01:00 +15°C° 0 mm 2 mps 747 mmHg 81%
    02:00 +14°C° 0 mm 2 mps 747 mmHg 81%
    03:00 +14°C° 0 mm 2 mps 747 mmHg 81%
    04:00 +14°C° 0 mm 2 mps 746 mmHg 82%
    05:00 +16°C° 0 mm 2 mps 746 mmHg 76%
    06:00 +18°C° 0 mm 2 mps 746 mmHg 70%
    07:00 +21°C° 0 mm 1 mps 746 mmHg 65%
    08:00 +22°C° 0 mm 1 mps 746 mmHg 58%
    09:00 +24°C° 0 mm 1 mps 746 mmHg 51%
    10:00 +26°C° 0 mm 1 mps 746 mmHg 44%
    11:00 +26°C° 0.1 mm 2 mps 746 mmHg 45%
    12:00 +27°C° 0.1 mm 2 mps 746 mmHg 45%
    13:00 +27°C° 0.1 mm 3 mps 746 mmHg 45%
    14:00 +26°C° 0.3 mm 3 mps 745 mmHg 48%
    15:00 +26°C° 0.3 mm 3 mps 745 mmHg 51%
    16:00 +25°C° 0.3 mm 3 mps 745 mmHg 53%
    17:00 +23°C° 0.1 mm 2 mps 745 mmHg 62%
    18:00 +19°C° 0.1 mm 2 mps 745 mmHg 71%
    19:00 +18°C° 0.1 mm 1 mps 744 mmHg 79%
    20:00 +16°C° 0 mm 1 mps 745 mmHg 80%
    21:00 +16°C° 0 mm 1 mps 745 mmHg 82%
    22:00 +14°C° 0 mm 0 mps 745 mmHg 83%
    23:00 +14°C° 0 mm 0 mps 745 mmHg 83%

    Tomorrow, 30 May, Tuesday

    Time Temperature Precipitation Wind Pressure Humidity
    00:00 +13°C° 0 mm 0 mps 745 mmHg 84%
    01:00 +13°C° 0 mm 0 mps 745 mmHg 84%
    02:00 +13°C° 0 mm 0 mps 745 mmHg 85%
    03:00 +13°C° 0 mm 0 mps 745 mmHg 85%
    04:00 +13°C° 0 mm 0 mps 745 mmHg 86%
    05:00 +15°C° 0 mm 0 mps 745 mmHg 78%
    06:00 +18°C° 0 mm 0 mps 745 mmHg 70%
    07:00 +20°C° 0 mm 0 mps 745 mmHg 61%
    08:00 +24°C° 0 mm 1 mps 746 mmHg 56%
    09:00 +25°C° 0 mm 1 mps 746 mmHg 51%
    10:00 +26°C° 0 mm 2 mps 746 mmHg 46%
    11:00 +26°C° 0.1 mm 2 mps 746 mmHg 45%
    12:00 +27°C° 0.1 mm 3 mps 746 mmHg 43%
    13:00 +27°C° 0.1 mm 3 mps 746 mmHg 42%
    14:00 +27°C° 0.1 mm 3 mps 746 mmHg 43%
    15:00 +26°C° 0.1 mm 3 mps 746 mmHg 44%
    16:00 +26°C° 0.1 mm 3 mps 745 mmHg 46%
    17:00 +23°C° 0 mm 2 mps 746 mmHg 55%
    18:00 +20°C° 0 mm 2 mps 746 mmHg 65%
    19:00 +18°C° 0 mm 1 mps 746 mmHg 75%
    20:00 +18°C° 0 mm 1 mps 746 mmHg 76%
    21:00 +16°C° 0 mm 1 mps 747 mmHg 77%
    22:00 +15°C° 0 mm 1 mps 747 mmHg 78%
    23:00 +15°C° 0 mm 1 mps 747 mmHg 78%

    Day after tomorrow, 31 May, Wednesday

    Time Temperature Precipitation Wind Pressure Humidity
    00:00 +14°C° 0 mm 1 mps 747 mmHg 78%
    01:00 +14°C° 0 mm 1 mps 747 mmHg 78%
    02:00 +14°C° 0 mm 1 mps 747 mmHg 79%
    03:00 +14°C° 0 mm 1 mps 747 mmHg 80%
    04:00 +13°C° 0 mm 1 mps 747 mmHg 81%
    05:00 +16°C° 0 mm 1 mps 747 mmHg 72%
    06:00 +20°C° 0 mm 1 mps 747 mmHg 62%
    07:00 +23°C° 0 mm 1 mps 747 mmHg 53%
    08:00 +24°C° 0 mm 1 mps 747 mmHg 49%
    09:00 +26°C° 0 mm 1 mps 747 mmHg 45%
    10:00 +27°C° 0 mm 2 mps 748 mmHg 41%
    11:00 +28°C° 0 mm 2 mps 747 mmHg 40%
    12:00 +28°C° 0 mm 3 mps 747 mmHg 40%
    13:00 +29°C° 0 mm 3 mps 747 mmHg 39%
    14:00 +28°C° 0 mm 3 mps 747 mmHg 42%
    15:00 +28°C° 0 mm 3 mps 747 mmHg 44%
    16:00 +27°C° 0 mm 3 mps 746 mmHg 47%
    17:00 +24°C° 0 mm 2 mps 746 mmHg 58%
    18:00 +22°C° 0 mm 1 mps 746 mmHg 68%
    19:00 +19°C° 0 mm 1 mps 746 mmHg 79%
    20:00 +18°C° 0 mm 1 mps 747 mmHg 81%
    21:00 +15°C° 0 mm 0 mps 747 mmHg 84%
    22:00 +14°C° 0 mm 0 mps 747 mmHg 86%
    23:00 +14°C° 0 mm 0 mps 747 mmHg 86%

    1 June, Thursday

    Time Temperature Precipitation Wind Pressure Humidity
    00:00 +14°C° 0 mm 0 mps 747 mmHg 85%
    01:00 +14°C° 0 mm 0 mps 747 mmHg 85%
    02:00 +13°C° 0 mm 0 mps 747 mmHg 84%
    03:00 +13°C° 0 mm 0 mps 746 mmHg 84%
    04:00 +14°C° 0 mm 1 mps 746 mmHg 83%
    05:00 +18°C° 0 mm 1 mps 746 mmHg 71%
    06:00 +21°C° 0 mm 1 mps 747 mmHg 60%
    07:00 +24°C° 0 mm 1 mps 747 mmHg 48%
    08:00 +25°C° 0 mm 1 mps 747 mmHg 44%
    09:00 +27°C° 0 mm 1 mps 747 mmHg 40%
    10:00 +29°C° 0 mm 1 mps 747 mmHg 35%
    11:00 +29°C° 0 mm 2 mps 747 mmHg 36%
    12:00 +30°C° 0 mm 3 mps 746 mmHg 36%
    13:00 +30°C° 0 mm 3 mps 746 mmHg 36%
    14:00 +30°C° 0 mm 3 mps 746 mmHg 39%
    15:00 +29°C° 0 mm 3 mps 746 mmHg 42%
    16:00 +28°C° 0 mm 3 mps 746 mmHg 46%
    17:00 +26°C° 0 mm 3 mps 746 mmHg 56%
    18:00 +23°C° 0 mm 2 mps 746 mmHg 67%
    19:00 +20°C° 0 mm 1 mps 746 mmHg 77%
    20:00 +19°C° 0 mm 1 mps 746 mmHg 79%
    21:00 +18°C° 0 mm 1 mps 746 mmHg 81%
    22:00 +15°C° 0 mm 0 mps 746 mmHg 84%
    23:00 +16°C° 0 mm 1 mps 746 mmHg 83%

    2 June, Friday

    Time Temperature Precipitation Wind Pressure Humidity
    00:00 +16°C° 0 mm 1 mps 746 mmHg 82%
    01:00 +15°C° 0 mm 1 mps 746 mmHg 82%
    02:00 +15°C° 0 mm 1 mps 746 mmHg 81%
    03:00 +15°C° 0 mm 1 mps 745 mmHg 81%
    04:00 +15°C° 0 mm 1 mps 745 mmHg 80%
    05:00 +18°C° 0 mm 1 mps 746 mmHg 70%
    06:00 +21°C° 0 mm 1 mps 746 mmHg 60%
    07:00 +24°C° 0 mm 1 mps 746 mmHg 50%
    08:00 +26°C° 0 mm 1 mps 746 mmHg 46%
    09:00 +27°C° 0 mm 2 mps 746 mmHg 42%
    10:00 +29°C° 0 mm 2 mps 746 mmHg 38%
    11:00 +29°C° 0 mm 3 mps 745 mmHg 38%
    12:00 +30°C° 0 mm 3 mps 745 mmHg 37%
    13:00 +30°C° 0 mm 4 mps 745 mmHg 36%
    14:00 +30°C° 0 mm 4 mps 745 mmHg 39%
    15:00 +29°C° 0 mm 4 mps 745 mmHg 42%
    16:00 +28°C° 0 mm 4 mps 744 mmHg 45%
    17:00 +26°C° 0 mm 3 mps 744 mmHg 56%
    18:00 +23°C° 0 mm 2 mps 744 mmHg 67%
    19:00 +19°C° 0 mm 2 mps 744 mmHg 78%
    20:00 +19°C° 0 mm 1 mps 745 mmHg 80%
    21:00 +18°C° 0 mm 1 mps 745 mmHg 82%
    22:00 +16°C° 0 mm 1 mps 745 mmHg 84%
    23:00 +16°C° 0 mm 1 mps 745 mmHg 83%

    3 June, Saturday

    Time Temperature Precipitation Wind Pressure Humidity
    00:00 +15°C° 0 mm 1 mps 744 mmHg 82%
    01:00 +15°C° 0 mm 1 mps 744 mmHg 81%
    02:00 +15°C° 0 mm 1 mps 744 mmHg 81%
    03:00 +14°C° 0 mm 1 mps 744 mmHg 81%
    04:00 +14°C° 0 mm 1 mps 744 mmHg 81%
    05:00 +18°C° 0 mm 1 mps 744 mmHg 71%
    06:00 +21°C° 0 mm 1 mps 744 mmHg 62%
    07:00 +24°C° 0 mm 1 mps 744 mmHg 53%
    08:00 +26°C° 0.2 mm 1 mps 744 mmHg 49%
    09:00 +27°C° 0.2 mm 1 mps 744 mmHg 45%
    10:00 +29°C° 0.2 mm 2 mps 744 mmHg 42%
    11:00 +29°C° 0.3 mm 2 mps 744 mmHg 42%
    12:00 +30°C° 0.3 mm 2 mps 744 mmHg 43%
    13:00 +30°C° 0.3 mm 3 mps 744 mmHg 44%
    14:00 +29°C° 0.4 mm 3 mps 743 mmHg 47%
    15:00 +29°C° 0.4 mm 3 mps 743 mmHg 50%
    16:00 +28°C° 0.4 mm 3 mps 743 mmHg 53%
    17:00 +26°C° 0.2 mm 2 mps 743 mmHg 62%
    18:00 +24°C° 0.2 mm 2 mps 743 mmHg 72%
    19:00 +21°C° 0.2 mm 1 mps 744 mmHg 82%
    20:00 +20°C° 0.1 mm 1 mps 744 mmHg 84%
    21:00 +20°C° 0.1 mm 1 mps 744 mmHg 86%
    22:00 +19°C° 0.1 mm 1 mps 744 mmHg 87%
    23:00 +19°C° 0.1 mm 1 mps 744 mmHg 87%
    Show more